Regional Weather Roundup
Issued by NWS

Home | Current Version | Previous Version | Graphics & Text | Print | Product List | Glossary On
Versions: 1 2 3 4 5 6 7 8 9 10 11 12 13 14 15 16 17 18 19 20 21 22 23 24 25 26 27 28 29 30 31 32 33 34 35 36 37 38 39 40 41 42 43 44 45 46 47 48 49 50
000
ASUS43 KFSD 282110
RWRSD

WEATHER ROUNDUP FOR SOUTH DAKOTA
NATIONAL WEATHER SERVICE SIOUX FALLS SD
400 PM CDT TUE MAR 28 2017

NOTE: "FAIR" INDICATES FEW OR NO CLOUDS BELOW 12,000 FEET WITH NO
SIGNIFICANT WEATHER AND/OR OBSTRUCTIONS TO VISIBILITY.


SDZ001>005-009-010-012>017-282200-
NORTHWEST AND NORTH CENTRAL SOUTH DAKOTA

CITY           SKY/WX    TMP DP  RH WIND       PRES   REMARKS
BUFFALO          N/A     49  39  68 W13       29.98R
FAITH            N/A     51  44  77 MISG      30.05S
MOBRIDGE       CLOUDY    60  36  40 S13       30.05F
$$

SDZ012>016-024>037-041>051-057-063-072>074-282200-
SOUTHWEST AND SOUTH CENTRAL SOUTH DAKOTA

CITY           SKY/WX    TMP DP  RH WIND       PRES   REMARKS
RAPID CTY ARPT LGT RAIN  44  41  89 CALM      30.04F
PIERRE         CLOUDY    56  39  53 S10       30.07R
CUSTER         LGT RAIN  38  35  89 NE6       30.02S FOG
ELLSWORTH AFB  LGT RAIN  43  43 100 CALM      30.04
PHILIP         LGT RAIN  48  46  93 SE9       30.06S
PINE RIDGE     LGT RAIN  47  44  90 E14       30.02S
SPEARFISH      FAIR      48  39  71 E12       30.04S
WINNER         LGT RAIN  51  46  83 SW7       30.07S
$$

SDZ004>011-016>023-039-040-282200-
NORTHEAST SOUTH DAKOTA

CITY           SKY/WX    TMP DP  RH WIND       PRES   REMARKS
ABERDEEN       CLOUDY    59  33  37 E8        30.09F
WATERTOWN      CLOUDY    58  38  47 E8        30.10F
BROOKINGS      MOSUNNY   58  36  43 E10G17      N/A
SISSETON         N/A     60  38  43 S6        30.12F
$$

SDZ017-020-022-023-036>040-048>070-282200-
SOUTHEAST SOUTH DAKOTA

CITY           SKY/WX    TMP DP  RH WIND       PRES   REMARKS
SIOUX FALLS    CLOUDY    61  36  39 E14       30.08S
HURON          SUNNY     60  38  43 VRB6      30.08F
CHAMBERLAIN    CLOUDY    60  38  44 E9        30.06S
MITCHELL       MOSUNNY   61  36  39 E6G17     30.08F
YANKTON        MOSUNNY   57  39  51 E8G16     30.06F
$$

ABBREVIATIONS USED IN REMARKS
   TC - TEMPERATURE IN CELSIUS
  WCI - WIND CHILL INDEX
   HX - HEAT INDEX
  VSB - VISIBILITY




USA.gov is the U.S. government's official web portal to all federal, state and local government web resources and services.